Flag for Germany Weather past 2 weeks in Bornheim (Rheinland), North Rhine-Westphalia, Germany

Now
55 °F

Overcast.


Feels Like: 55 °F
Forecast: 52 / 65 °F
Wind: 3 mph from Southwest

Location: Bonn-Hangelar

Current Time: Apr 25, 2015 at 10:08:02 PM

Latest Report: Apr 25, 2015 at 9:00 PM


Visibility: 19 mi

Pressure: 29.78 "Hg

Humidity: 82%

Dew point: 50 °F

Location of Bornheim (Rheinland)Location

Historic Weather in Bornheim (Rheinland) — Graph

°F

Bornheim (Rheinland) temperature yesterday

Maximum temperature yesterday: 68 °F (at 4:00 PM)
Minimum temperature yesterday: 44 °F (at 5:00 AM)
Average temperature yesterday: 57 °F

Past Weeks' High & Low Weather Summary

 TemperatureHumidityPressure
High72 °F (Apr 15, 5:00 PM)98% (Apr 22, 7:00 AM)30.50 "Hg (Apr 22, 7:00 AM)
Low35 °F (Apr 19, 6:00 AM)33% (Apr 21, 5:00 PM)29.76 "Hg (Apr 25, 7:00 PM)
Average52 °F67%30.19 "Hg
* Reported Apr 10 9:00 PM — Apr 25 9:00 PM, Bornheim (Rheinland), Weather by CustomWeather, © 2015

Note: Actual official high and low records may vary slightly from our data, if they occured in-between our weather recording intervals... More about our weather records

Advertising

Bornheim (Rheinland) weather history for previous 24 hours

 ConditionsComfort  
Time TempWeatherWind HumidityBarometerVisibility
9:00 PM
Sat, Apr 25
55 °FOvercast.3 mph82%29.78 "Hg19 mi
8:00 PM56 °FOvercast.3 mph81%29.77 "Hg19 mi
7:00 PM58 °FOvercast.6 mph76%29.76 "Hg16 mi
6:00 PM58 °FOvercast.6 mph78%29.76 "Hg22 mi
5:00 PM56 °FLight rain. Overcast.6 mph82%29.76 "Hg22 mi
4:00 PM57 °FOvercast.8 mph83%29.77 "Hg19 mi
3:00 PM56 °FLight rain. Overcast.5 mph90%29.78 "Hg14 mi
2:00 PM54 °FLight rain. Overcast.5 mph88%29.79 "Hg9 mi
1:00 PM51 °FLight rain. Low clouds.6 mph93%29.80 "Hg6 mi
12:00 PM54 °FLight rain. Overcast.5 mph87%29.79 "Hg9 mi
11:00 AM55 °FOvercast.5 mph88%29.79 "Hg5 mi
10:00 AM53 °FRain. Overcast.3 mph94%29.80 "Hg4 mi
9:00 AM51 °FPartly sunny.3 mph96%29.81 "Hg2 mi
8:00 AM50 °FRain. Overcast.3 mph97%29.80 "Hg3 mi
7:00 AM50 °FRain. Overcast.2 mph95%29.80 "Hg5 mi
6:00 AM50 °FLight rain. Overcast.5 mph89%29.80 "Hg5 mi
5:00 AM52 °FFog.3 mph91%29.82 "Hg2 mi
4:00 AM53 °FFog.5 mph89%29.81 "Hg2 mi
3:00 AM55 °FFog.3 mph84%29.82 "Hg3 mi
1:00 AM58 °FOvercast.3 mph73%29.83 "Hg7 mi
12:00 AM60 °FOvercast.1 mph69%29.83 "Hg9 mi
11:00 PM
Fri, Apr 24
62 °FOvercast.9 mph61%29.83 "Hg11 mi
10:00 PM62 °FOvercast.3 mph54%29.83 "Hg14 mi
Weather by CustomWeather, © 2015

See weather overviewHow to use our weather pages